Weather History for Joplin, MO

Change the Weather History Date:

Tuesday, March 19, 2013

  Actual Average Record
Temperature  
Mean Temperature 40 °F 50 °F  
Max Temperature 51 °F 61 °F 84 °F (1995)
Min Temperature 29 °F 39 °F 13 °F (1965)
Degree Days  
Heating Degree Days 25 15  
Month to date heating degree days 394 344  
Since 1 July heating degree days 3510 3598  
Cooling Degree Days 0 0  
Month to date cooling degree days 0 0  
Year to date cooling degree days 1 1  
Moisture  
Dew Point 24 °F    
Average Humidity 54    
Maximum Humidity 82    
Minimum Humidity 25    
Precipitation  
Precipitation 0.00 in 0.11 in 3.06 in (2012)
Month to date precipitation 1.20 2.00  
Year to date precipitation 6.35 6.35  
Snow  
Snow 0.00 in - - ()
Month to date snowfall T  
Snow Depth 0.00 in    
Sea Level Pressure  
Sea Level Pressure 30.19 in    
Wind  
Wind Speed 6 mph (ENE)    
Max Wind Speed 17 mph    
Max Gust Speed 22 mph    
Visibility 10 miles    
Events      
T = Trace of Precipitation, MM = Missing Value Source: NWS Daily Summary

Daily Weather History Graph

Daily Weather History Graph

Search for Another Location

Airport:

Trip Planner

Search our weather history database for the weather conditions in past years. The results will help you decide how hot, cold, wet, or windy it might be!

Date:

Astronomy

Mar. 19, 2013 Rise Set
Actual Time 7:22 AM CDT 7:29 PM CDT
Civil Twilight 6:56 AM CDT 7:55 PM CDT
Nautical Twilight 6:26 AM CDT 8:25 PM CDT
Astronomical Twilight 5:55 AM CDT 8:56 PM CDT
Moon 12:20 PM CDT (3/19) 2:09 AM CDT (3/19)
Length of Visible Light 12h 58m
Length of Day
12h 06m
Waxing Crescent, 50% of the Moon is Illuminated
Mar 19
Waxing Crescent
Mar 19
First Quarter
Mar 27
Full
Apr 2
Last Quarter
Apr 10
New

Hourly Weather History & Observations

Time (CDT) Temp. Windchill Dew Point Humidity Pressure Visibility Wind Dir Wind Speed Gust Speed Precip Events Conditions
12:53 AM 39.0 °F 34.8 °F 24.1 °F 55% 30.07 in 10.0 mi ENE 5.8 mph - N/A   Clear
1:53 AM 37.0 °F - 25.0 °F 62% 30.08 in 10.0 mi Calm Calm - N/A   Clear
2:53 AM 36.0 °F 30.3 °F 24.1 °F 62% 30.09 in 10.0 mi NE 6.9 mph - N/A   Clear
3:53 AM 35.1 °F 30.1 °F 24.1 °F 64% 30.10 in 10.0 mi ENE 5.8 mph - N/A   Clear
4:53 AM 33.1 °F 27.7 °F 24.1 °F 70% 30.11 in 10.0 mi ENE 5.8 mph - N/A   Clear
5:53 AM 34.0 °F 28.8 °F 24.1 °F 67% 30.11 in 10.0 mi SE 5.8 mph - N/A   Clear
6:53 AM 32.0 °F 26.4 °F 23.0 °F 69% 30.16 in 10.0 mi East 5.8 mph - N/A   Clear
7:53 AM 30.9 °F 27.5 °F 23.0 °F 72% 30.18 in 10.0 mi ENE 3.5 mph - N/A   Clear
8:53 AM 37.0 °F 31.6 °F 23.0 °F 57% 30.20 in 10.0 mi East 6.9 mph - N/A   Clear
9:53 AM 41.0 °F 36.4 °F 18.0 °F 40% 30.22 in 10.0 mi East 6.9 mph - N/A   Clear
10:53 AM 44.1 °F 40.1 °F 15.1 °F 31% 30.22 in 10.0 mi SE 6.9 mph - N/A   Scattered Clouds
11:53 AM 46.9 °F - 12.9 °F 25% 30.22 in 10.0 mi ESE 6.9 mph - N/A   Overcast
12:53 PM 48.9 °F - 16.0 °F 27% 30.21 in 10.0 mi ENE 6.9 mph - N/A   Partly Cloudy
1:53 PM 51.1 °F - 19.9 °F 29% 30.20 in 10.0 mi Variable 6.9 mph - N/A   Mostly Cloudy
2:53 PM 50.0 °F - 21.0 °F 32% 30.19 in 10.0 mi Variable 6.9 mph - N/A   Mostly Cloudy
3:53 PM 48.9 °F - 21.9 °F 35% 30.20 in 10.0 mi NNE 10.4 mph - N/A   Overcast
4:53 PM 48.0 °F - 23.0 °F 37% 30.21 in 10.0 mi NNE 13.8 mph 21.9 mph N/A   Mostly Cloudy
5:53 PM 46.0 °F 40.2 °F 23.0 °F 40% 30.23 in 10.0 mi NNE 12.7 mph 21.9 mph N/A   Overcast
6:53 PM 44.1 °F 38.1 °F 30.0 °F 58% 30.24 in 10.0 mi NNE 11.5 mph - N/A   Mostly Cloudy
7:53 PM 42.1 °F 38.4 °F 30.9 °F 65% 30.25 in 10.0 mi NE 5.8 mph - N/A   Overcast
8:53 PM 39.9 °F 33.9 °F 30.9 °F 70% 30.25 in 10.0 mi ENE 9.2 mph - N/A   Mostly Cloudy
9:53 PM 39.0 °F - 30.9 °F 73% 30.27 in 10.0 mi Calm Calm - N/A   Mostly Cloudy
10:53 PM 37.0 °F - 32.0 °F 82% 30.28 in 10.0 mi Calm Calm - N/A   Clear
11:53 PM 35.1 °F - 30.0 °F 82% 30.28 in 10.0 mi Calm Calm - N/A   Clear